Weather History for Montevideo, MN

Change the Weather History Date:

Tuesday, November 15, 2011

  Actual Average Record
Temperature  
Mean Temperature 36 °F -  
Max Temperature 44 °F 43 °F 65 °F (1953)
Min Temperature 28 °F 21 °F -3 °F (1959)
Degree Days  
Heating Degree Days 29    
Moisture  
Dew Point 18 °F    
Average Humidity 50    
Maximum Humidity 69    
Minimum Humidity 29    
Precipitation  
Precipitation 0.00 in - - ()
Sea Level Pressure  
Sea Level Pressure 29.67 in    
Wind  
Wind Speed 7 mph (NW)    
Max Wind Speed 25 mph    
Max Gust Speed 34 mph    
Visibility 10 miles    
Events      
Averages and records for this station are not official NWS values.
T = Trace of Precipitation, MM = Missing Value Source: NWS Daily Summary

Daily Weather History Graph

Daily Weather History Graph

Search for Another Location

Airport:

Trip Planner

Search our weather history database for the weather conditions in past years. The results will help you decide how hot, cold, wet, or windy it might be!

Date:

Astronomy

Nov. 15, 2011 Rise Set
Actual Time 7:20 AM CST 4:54 PM CST
Civil Twilight 6:48 AM CST 5:25 PM CST
Nautical Twilight 6:12 AM CST 6:01 PM CST
Astronomical Twilight 5:38 AM CST 6:36 PM CST
Moon 9:03 PM CST (11/15) 11:21 AM CST (11/15)
Length of Visible Light 10h 37m
Length of Day
9h 34m
Waning Gibbous, 79% of the Moon is Illuminated
Nov 15
Waning Gibbous
Nov 18
Last Quarter
Nov 25
New
Dec 2
First Quarter
Dec 10
Full

Hourly Weather History & Observations

Time (CST) Temp. Windchill Dew Point Humidity Pressure Visibility Wind Dir Wind Speed Gust Speed Precip Events Conditions
12:14 AM 35.6 °F - 17.6 °F 48% 29.53 in 10.0 mi Calm Calm - N/A   Overcast
12:34 AM 33.8 °F - 19.4 °F 56% 29.52 in 10.0 mi Calm Calm - N/A   Overcast
12:54 AM 35.6 °F - 19.4 °F 52% 29.51 in 10.0 mi Calm Calm - N/A   Overcast
1:14 AM 33.8 °F 30.8 °F 19.4 °F 56% 29.50 in 10.0 mi SSW 3.5 mph - N/A   Mostly Cloudy
1:34 AM 33.8 °F - 19.4 °F 56% 29.50 in 10.0 mi Calm Calm - N/A   Clear
1:54 AM 33.8 °F 30.8 °F 19.4 °F 56% 29.49 in 10.0 mi South 3.5 mph - N/A   Clear
2:14 AM 33.8 °F 30.8 °F 19.4 °F 56% 29.49 in 10.0 mi SSW 3.5 mph - N/A   Clear
2:35 AM 32.0 °F - 19.4 °F 60% 29.49 in 10.0 mi Calm Calm - N/A   Clear
3:14 AM 32.0 °F 28.7 °F 19.4 °F 60% 29.50 in 10.0 mi North 3.5 mph - N/A   Scattered Clouds
3:34 AM 30.2 °F - 19.4 °F 64% 29.49 in 10.0 mi Calm Calm - N/A   Scattered Clouds
3:54 AM 30.2 °F - 19.4 °F 64% 29.49 in 10.0 mi Calm Calm - N/A   Scattered Clouds
4:14 AM 28.4 °F 20.4 °F 19.4 °F 69% 29.50 in 10.0 mi North 8.1 mph - N/A   Mostly Cloudy
4:35 AM 28.4 °F 24.6 °F 17.6 °F 64% 29.51 in 10.0 mi NNE 3.5 mph - N/A   Mostly Cloudy
4:54 AM 28.4 °F 23.3 °F 17.6 °F 64% 29.51 in 10.0 mi NNE 4.6 mph - N/A   Mostly Cloudy
5:14 AM 28.4 °F 23.3 °F 17.6 °F 64% 29.52 in 10.0 mi North 4.6 mph - N/A   Scattered Clouds
5:34 AM 28.4 °F 23.3 °F 17.6 °F 64% 29.52 in 10.0 mi NNW 4.6 mph - N/A   Clear
5:54 AM 28.4 °F 22.2 °F 17.6 °F 64% 29.53 in 10.0 mi NW 5.8 mph - N/A   Clear
7:14 AM 28.4 °F 21.2 °F 19.4 °F 69% 29.56 in 10.0 mi NW 6.9 mph - N/A   Clear
7:34 AM 28.4 °F 22.2 °F 19.4 °F 69% 29.58 in 10.0 mi NW 5.8 mph - N/A   Clear
7:54 AM 28.4 °F 20.4 °F 19.4 °F 69% 29.59 in 10.0 mi NW 8.1 mph - N/A   Clear
8:14 AM 30.2 °F 23.4 °F 19.4 °F 64% 29.60 in 10.0 mi WNW 6.9 mph - N/A   Clear
8:34 AM 30.2 °F 24.3 °F 21.2 °F 69% 29.61 in 10.0 mi WNW 5.8 mph - N/A   Clear
8:54 AM 32.0 °F 26.4 °F 21.2 °F 64% 29.62 in 10.0 mi WNW 5.8 mph - N/A   Clear
9:14 AM 35.6 °F 32.8 °F 21.2 °F 56% 29.61 in 10.0 mi NW 3.5 mph - N/A   Clear
9:34 AM 37.4 °F 32.1 °F 24.8 °F 60% 29.61 in 10.0 mi WNW 6.9 mph - N/A   Clear
9:54 AM 39.2 °F 33.6 °F 24.8 °F 56% 29.62 in 10.0 mi WNW 8.1 mph - N/A   Clear
10:14 AM 42.8 °F 37.0 °F 24.8 °F 49% 29.62 in 10.0 mi NW 10.4 mph - N/A   Clear
10:34 AM 42.8 °F 36.6 °F 24.8 °F 49% 29.63 in 10.0 mi WNW 11.5 mph - N/A   Clear
10:54 AM 44.6 °F 38.4 °F 26.6 °F 49% 29.65 in 10.0 mi WNW 12.7 mph 20.7 mph N/A   Clear
11:14 AM 44.6 °F 38.8 °F 26.6 °F 49% 29.64 in 10.0 mi WNW 11.5 mph 20.7 mph N/A   Clear
11:54 AM 44.6 °F 36.4 °F 26.6 °F 49% 29.64 in 10.0 mi NW 20.7 mph 31.1 mph N/A   Clear
12:14 PM 44.6 °F 36.6 °F 24.8 °F 46% 29.65 in 10.0 mi NW 19.6 mph 27.6 mph N/A   Clear
12:34 PM 42.8 °F 33.1 °F 21.2 °F 42% 29.67 in 10.0 mi NW 25.3 mph 33.4 mph N/A   Scattered Clouds
12:54 PM 42.8 °F 34.0 °F 19.4 °F 39% 29.68 in 10.0 mi NW 20.7 mph 31.1 mph N/A   Scattered Clouds
1:14 PM 42.8 °F 33.5 °F 19.4 °F 39% 29.69 in 10.0 mi NNW 23.0 mph 33.4 mph N/A   Scattered Clouds
1:34 PM 44.6 °F 36.6 °F 15.8 °F 31% 29.70 in 10.0 mi NNW 19.6 mph 28.8 mph N/A   Clear
1:54 PM 42.8 °F 35.1 °F 15.8 °F 34% 29.71 in 10.0 mi NNW 16.1 mph 31.1 mph N/A   Scattered Clouds
2:14 PM 42.8 °F 33.1 °F 15.8 °F 34% 29.71 in 10.0 mi NNW 25.3 mph 33.4 mph N/A   Scattered Clouds
2:34 PM 42.8 °F 33.8 °F 12.2 °F 29% 29.72 in 10.0 mi NW 21.9 mph 34.5 mph N/A   Scattered Clouds
2:54 PM 42.8 °F 33.8 °F 12.2 °F 29% 29.74 in 10.0 mi NW 21.9 mph 33.4 mph N/A   Scattered Clouds
3:14 PM 41.0 °F 31.4 °F 12.2 °F 31% 29.75 in 10.0 mi NNW 21.9 mph 34.5 mph N/A   Mostly Cloudy
3:34 PM 41.0 °F 31.9 °F 12.2 °F 31% 29.76 in 10.0 mi NNW 19.6 mph 32.2 mph N/A   Scattered Clouds
3:54 PM 39.2 °F 29.0 °F 10.4 °F 31% 29.77 in 10.0 mi NW 21.9 mph 32.2 mph N/A   Mostly Cloudy
4:13 PM 39.2 °F 30.5 °F 12.2 °F 33% 29.78 in 10.0 mi NNW 16.1 mph 25.3 mph N/A   Scattered Clouds
4:34 PM 37.4 °F 28.2 °F 12.2 °F 36% 29.79 in 10.0 mi NNW 16.1 mph 24.2 mph N/A   Clear
4:54 PM 37.4 °F 29.8 °F 12.2 °F 36% 29.80 in 10.0 mi NW 11.5 mph 26.5 mph N/A   Clear
5:14 PM 37.4 °F 28.9 °F 12.2 °F 36% 29.81 in 10.0 mi NNW 13.8 mph 23.0 mph N/A   Clear
5:34 PM 35.6 °F 27.1 °F 15.8 °F 44% 29.82 in 10.0 mi NNW 12.7 mph 18.4 mph N/A   Clear
5:54 PM 35.6 °F 27.5 °F 15.8 °F 44% 29.84 in 10.0 mi NW 11.5 mph 17.3 mph N/A   Clear
6:14 PM 35.6 °F 28.0 °F 17.6 °F 48% 29.86 in 10.0 mi NNW 10.4 mph 17.3 mph N/A   Clear
6:34 PM 33.8 °F 25.3 °F 17.6 °F 52% 29.87 in 10.0 mi NNW 11.5 mph 19.6 mph N/A   Scattered Clouds
6:54 PM 33.8 °F 23.9 °F 17.6 °F 52% 29.88 in 10.0 mi North 15.0 mph - N/A   Clear
7:14 PM 32.0 °F 23.0 °F 15.8 °F 51% 29.90 in 10.0 mi North 11.5 mph 20.7 mph N/A   Clear
7:34 PM 32.0 °F 21.2 °F 14.0 °F 48% 29.91 in 10.0 mi North 16.1 mph 23.0 mph N/A   Clear
7:54 PM 30.2 °F 20.2 °F 12.2 °F 47% 29.92 in 10.0 mi NNW 12.7 mph 19.6 mph N/A   Clear
8:15 PM 30.2 °F 19.8 °F 12.2 °F 47% 29.92 in 10.0 mi North 13.8 mph 17.3 mph N/A   Clear
8:34 PM 30.2 °F 22.6 °F 12.2 °F 47% 29.92 in 10.0 mi North 8.1 mph - N/A   Clear
8:54 PM 28.4 °F 19.7 °F 12.2 °F 51% 29.92 in 10.0 mi NNW 9.2 mph - N/A   Clear
9:14 PM 28.4 °F 20.4 °F 12.2 °F 51% 29.93 in 10.0 mi NNW 8.1 mph - N/A   Clear
9:34 PM 28.4 °F 21.2 °F 10.4 °F 47% 29.93 in 10.0 mi NW 6.9 mph - N/A   Clear
9:54 PM 26.6 °F 21.2 °F 10.4 °F 51% 29.93 in 10.0 mi NW 4.6 mph - N/A   Scattered Clouds
10:14 PM 26.6 °F 19.1 °F 12.2 °F 55% 29.93 in 10.0 mi West 6.9 mph - N/A   Overcast
10:34 PM 26.6 °F 19.1 °F 12.2 °F 55% 29.94 in 10.0 mi WNW 6.9 mph - N/A   Mostly Cloudy
10:54 PM 24.8 °F 16.9 °F 12.2 °F 59% 29.94 in 10.0 mi WNW 6.9 mph - N/A   Scattered Clouds
11:14 PM 24.8 °F 15.3 °F 14.0 °F 64% 29.95 in 10.0 mi West 9.2 mph - N/A   Mostly Cloudy
11:34 PM 26.6 °F 18.2 °F 15.8 °F 64% 29.96 in 10.0 mi West 8.1 mph - N/A   Overcast
11:54 PM 26.6 °F 18.2 °F 15.8 °F 64% 29.96 in 10.0 mi WNW 8.1 mph - N/A   Overcast